Tiempo atmosférico en la estación meteorológica de Xinzo De Limia, Ourense (600 m.)



Fecha
DESCASC
Temp. máxima en grados centígrados (hora)
DESCASC
Temp. mínima en grados centígrados (hora)
DESCASC
Temp. media en grados centígrados
DESCASC
Racha de viento máxima en m/sg (hora)
DESCASC
Velocidad máxima media en intervalos de 10 minutos(hora)
DESCASC
Precipitaciones diarias en mm
DESCASC
Precipitaciones de 00:00 a 06:00 en mm
DESCASC
Precipitaciones de 06:00 a 12:00 en mm
DESCASC
Precipitaciones de 12:00 a 18:00 en mm
DESCASC
Precipitaciones de 18:00 a 24:00 en mm
DESCASC
29-10-2020 13.9 (14:00) 0 (06:40) 6.9 19.44 (12:20) 6.11 (12:20) 0 0 0 0 0
28-10-2020 13.9 (13:00) 3.4 (23:59) 8.6 6.11 (14:00) 3.89 (14:00) 1.8 1.8 0 0 0
27-10-2020 13.4 (17:00) 6 (00:00) 9.7 7.22 (11:10) 2.78 (09:40) 0.3 0 0 0 0.3
26-10-2020 11.1 (14:20) 1.2 (00:00) 6.2 9.17 (12:40) 5.28 (13:30) 3.3 3.2 0 0.1 0
25-10-2020 12.7 (00:40) 4.2 (00:00) 8.4 12.5 (14:00) 6.67 (14:00) 22.5 16.8 3.9 0.9 0.9
24-10-2020 13.8 (17:50) 5 (00:00) 9.4 11.67 (23:50) 5 (23:40) 2.3 0 0.4 0.3 1.6
23-10-2020 14.1 (16:20) 4.3 (00:00) 9.2 7.5 (15:10) 3.89 (17:40) 0 0 0 0 0
22-10-2020 16.5 (15:50) 6.4 (00:00) 11.5 6.94 (17:10) 3.33 (06:20) 0.6 0 0.5 0.1 0
21-10-2020 13.7 (16:20) 8 (00:00) 10.8 8.89 (14:10) 4.44 (13:50) 7.3 4.2 0.7 2.4 0
20-10-2020 13.7 (13:00) 10 (00:00) 11.8 11.11 (13:40) 6.67 (13:40) 15.1 0 0 6.4 8.7
19-10-2020 16.9 (14:00) 10.9 (00:00) 13.9 15.28 (11:00) 7.78 (11:00) 5.8 0 0 2.4 3.4
18-10-2020 20.9 (16:30) 4.4 (00:00) 12.6 9.44 (12:20) 5.28 (12:20) 0 0 0 0 0
17-10-2020 18.5 (17:10) 1.3 (00:00) 9.9 6.39 (16:20) 3.33 (13:30) 0 0 0 0 0
16-10-2020 17.2 (18:00) -2 (-00:0) 7.6 10.56 (12:00) 5.83 (12:20) 0 0 0 0 0
15-10-2020 13.9 (16:20) 2.5 (00:00) 8.2 7.5 (14:30) 4.72 (16:00) 0 0 0 0 0
14-10-2020 13 (15:40) 4.6 (00:00) 8.8 7.78 (11:50) 4.17 (15:30) 1.8 0 0 1.7 0.1
13-10-2020 15.6 (13:00) 6.7 (00:00) 11.2 8.61 (13:50) 5.83 (13:50) 0 0 0 0 0
12-10-2020 17.2 (16:30) -2.6 (-00:0) 7.3 7.22 (17:20) 5 (17:20) 0 0 0 0 0
11-10-2020 16.6 (16:40) 2.4 (00:00) 9.5 9.17 (15:10) 6.11 (16:50) 0 0 0 0 0
10-10-2020 18.2 (16:10) 6.7 (00:00) 12.5 8.33 (18:10) 5.56 (18:50) 0 0 0 0 0
09-10-2020 19.7 (17:10) 8.9 (00:00) 14.3 6.39 (14:20) 4.17 (14:40) 0.2 0.1 0.1 0 0
08-10-2020 24.9 (15:40) 5.2 (00:00) 15 6.11 (17:30) 4.17 (17:10) 0.1 0 0.1 0 0
07-10-2020 21.6 (16:20) 10.8 (00:00) 16.2 6.11 (18:20) 3.89 (18:50) 0.2 0.2 0 0 0
06-10-2020 21.5 (16:30) 11.3 (00:00) 16.4 8.61 (18:00) 5 (18:30) 0.3 0 0.3 0 0
05-10-2020 14.3 (15:30) 8.1 (00:00) 11.2 7.78 (21:30) 3.61 (23:30) 0.6 0.5 0 0.1 0
04-10-2020 12.9 (17:10) 7.7 (00:00) 10.3 11.11 (17:30) 6.11 (17:50) 1.5 0.6 0 0.8 0.1
03-10-2020 12.9 (18:10) 5.6 (00:00) 9.2 10 (16:20) 5.28 (15:10) 0.8 0.2 0.5 0 0.1
02-10-2020 13.6 (02:20) 5.5 (00:00) 9.6 14.44 (03:40) 7.78 (05:10) 19.3 7.5 4.8 3.5 3.5
01-10-2020 17.2 (15:40) 9.6 (00:00) 13.4 12.78 (19:50) 4.72 (16:10) 1.6 0.3 0.9 0 0.4
30-09-2020 22.6 (16:10) 2.2 (00:00) 12.4 8.61 (14:50) 3.89 (13:40) 0.2 0 0 0.2 0

Gráficas

Temp. máximas Temp. mínimas Temp. medias Precipitaciones Rachas de viento máximas Velocidades máximas media en intervalos de 10 minutos

Datos horarios

Fecha y hora oficial Temperatura (ºC) Velocidad del viento (km/h) Dirección del viento Racha (km/h) Dirección de racha Precipitación (mm) Presión (hPa) Tendencia (hPa) Humedad (%)
2020-10-29 23:00:00 8.3 10 Sudeste 22 Sudeste 0 -- -- 84
2020-10-29 22:00:00 8.5 13 Sudeste 23 Sudeste 0 -- -- 84
2020-10-29 21:00:00 7.7 10 Sudeste 20 Sudeste 0 -- -- 83
2020-10-29 20:00:00 8.1 14 Sudeste 23 Sudeste 0 -- -- 79
2020-10-29 19:00:00 9.4 14 Sudeste 25 Sudeste 0 -- -- 72
2020-10-29 18:00:00 11.1 13 Sudeste 34 Sudeste 0 -- -- 66
2020-10-29 17:00:00 12.5 19 Sudeste 35 Sudeste 0 -- -- 60
2020-10-29 16:00:00 13.1 21 Sudeste 35 Sudeste 0 -- -- 59
2020-10-29 15:00:00 13.7 19 Sudeste 36 Sudeste 0 -- -- 58
2020-10-29 14:00:00 13.6 19 Sudeste 35 Sudeste 0 -- -- 60
2020-10-29 13:00:00 12.9 22 Sudeste 70 Sudeste 0 -- -- 64
2020-10-29 12:00:00 11.9 21 Sudeste 37 Sudeste 0 -- -- 77
2020-10-29 11:00:00 9.7 15 Sudeste 28 Sudeste 0 -- -- 93
2020-10-29 10:00:00 2.8 3 Sudoeste 9 Sudoeste 0 -- -- 94
2020-10-29 09:00:00 0.6 5 Sudoeste 8 Sudoeste 0 -- -- 93
2020-10-29 08:00:00 0 0 Calma 5 Sur 0 -- -- 93
2020-10-29 07:00:00 0 3 Sudoeste 8 Oeste 0 -- -- 93
2020-10-29 06:00:00 0.8 3 Oeste 5 Sur 0 -- -- 93
2020-10-29 05:00:00 2.1 0 Calma 2 Sudeste 0 -- -- 92
2020-10-29 04:00:00 1.8 0 Calma 6 Sur 0 -- -- 92
2020-10-29 03:00:00 1.2 0 Calma -- -- 0 -- -- 92
2020-10-29 02:00:00 1.1 0 Calma 6 Oeste 0 -- -- 92
2020-10-29 01:00:00 2.4 0 Calma 5 Sur 0 -- -- 91
2020-10-29 00:00:00 3.4 0 Calma 7 Noroeste 0 -- -- 90
2020-10-28 23:00:00 4.3 2 Sur 6 Sur 0 -- -- 89
2020-10-28 22:00:00 5.6 0 Calma 4 Oeste 0 -- -- 87
2020-10-28 21:00:00 7.6 2 Sur 6 Sur 0 -- -- 84
2020-10-28 20:00:00 9.1 0 Calma 8 Nordeste 0 -- -- 81
2020-10-28 19:00:00 10.1 4 Noroeste 11 Noroeste 0 -- -- 81
2020-10-28 18:00:00 11.4 5 Norte 15 Noroeste 0 -- -- 80
2020-10-28 17:00:00 12.7 6 Noroeste 13 Noroeste 0 -- -- 66
2020-10-28 16:00:00 13.6 5 Sudoeste 13 Oeste 0 -- -- 60
2020-10-28 15:00:00 13.3 9 Oeste 19 Noroeste 0 -- -- 59
2020-10-28 14:00:00 12.6 14 Noroeste 22 Noroeste 0 -- -- 62
2020-10-28 13:00:00 13.9 4 Oeste 13 Oeste 0 -- -- 66
2020-10-28 12:00:00 12.1 4 Noroeste 8 Noroeste 0 -- -- 75
2020-10-28 11:00:00 11.6 0 Calma 9 Noroeste 0 -- -- 87
2020-10-28 10:00:00 9.9 5 Noroeste 9 Noroeste 0 -- -- 92
2020-10-28 09:00:00 8.9 0 Calma 7 Oeste 0 -- -- 92
2020-10-28 08:00:00 9 0 Calma 11 Norte 0 -- -- 92
2020-10-28 07:00:00 9 5 Nordeste 9 Nordeste 0 -- -- 92
2020-10-28 06:00:00 9.5 3 Oeste 9 Sudoeste 0 -- -- 92
2020-10-28 05:00:00 9 0 Calma 3 Nordeste 0 -- -- 92
2020-10-28 04:00:00 10 0 Calma 13 Sudoeste 0 -- -- 92
2020-10-28 03:00:00 10.3 2 Sudoeste 12 Sudoeste 0 -- -- 92
2020-10-28 02:00:00 10.9 0 Calma 15 Noroeste 0.2 -- -- 92
2020-10-28 01:00:00 11.1 0 Calma 11 Sur 1.6 -- -- 92
2020-10-28 00:00:00 10.9 5 Sudeste 12 Sudeste 0.2 -- -- 91
2020-10-27 23:00:00 11.1 3 Oeste 11 Sudeste 0 -- -- 90
2020-10-27 22:00:00 11.1 5 Sudeste 10 Este 0.1 -- -- 89
2020-10-27 21:00:00 11.4 0 Calma 4 Sudoeste 0 -- -- 87
2020-10-27 20:00:00 11.6 3 Sudeste 10 Oeste 0 -- -- 85
2020-10-27 19:00:00 11.9 5 Oeste 22 Sudoeste 0 -- -- 84
2020-10-27 18:00:00 12.9 5 Oeste 15 Oeste 0 -- -- 84
2020-10-27 17:00:00 13.4 3 Oeste 9 Oeste 0 -- -- 85
2020-10-27 16:00:00 12.2 5 Nordeste 10 Nordeste 0 -- -- 84
2020-10-27 15:00:00 11.8 0 Calma 10 Sur 0 -- -- 84
2020-10-27 14:00:00 11.5 5 Norte 14 Nordeste 0 -- -- 81
2020-10-27 13:00:00 11.9 4 Sur 19 Oeste 0 -- -- 79
2020-10-27 12:00:00 11.7 5 Este 26 Sudoeste 0 -- -- 81
2020-10-27 11:00:00 10.7 8 Sudoeste 22 Sudoeste 0 -- -- 89
2020-10-27 10:00:00 8.3 8 Este 18 Sudeste 0 -- -- 90
2020-10-27 09:00:00 7.4 8 Sudeste 17 Sudeste 0 -- -- 90
2020-10-27 08:00:00 7.3 2 Sudoeste 13 Sur 0 -- -- 90
2020-10-27 07:00:00 7.2 6 Sudeste 13 Sudeste 0 -- -- 90
2020-10-27 06:00:00 6.9 8 Sudeste 13 Sudeste 0 -- -- 90
2020-10-27 05:00:00 6.8 5 Sur 15 Sur 0 -- -- 91
2020-10-27 04:00:00 7.3 6 Sudoeste 16 Sudoeste 0 -- -- 91
2020-10-27 03:00:00 6.8 4 Sur 14 Sudeste 0 -- -- 91
2020-10-27 02:00:00 6.3 4 Sudeste 11 Sur 0 -- -- 91
2020-10-27 01:00:00 6.1 2 Sudeste 7 Sudeste 0 -- -- 91
2020-10-27 00:00:00 6.2 2 Sudoeste 11 Sudoeste 0 -- -- 91
2020-10-26 23:00:00 5.6 3 Oeste 17 Oeste 0 -- -- 90
2020-10-26 22:00:00 6 5 Sudoeste 13 Oeste 0 -- -- 89
2020-10-26 21:00:00 6 2 Oeste 11 Oeste 0 -- -- 87
2020-10-26 20:00:00 6.7 3 Oeste 13 Oeste 0 -- -- 85
2020-10-26 19:00:00 7.9 5 Oeste 13 Oeste 0 -- -- 82
2020-10-26 18:00:00 8.6 6 Sudoeste 18 Oeste 0 -- -- 76
2020-10-26 17:00:00 9.4 11 Noroeste 31 Oeste 0 -- -- 69
2020-10-26 16:00:00 9.1 12 Oeste 31 Noroeste 0 -- -- 68
2020-10-26 15:00:00 9.9 16 Noroeste 31 Oeste 0 -- -- 60
2020-10-26 14:00:00 10.9 17 Noroeste 32 Oeste 0 -- -- 63
2020-10-26 13:00:00 8.7 10 Noroeste 33 Oeste 0.1 -- -- 76
2020-10-26 12:00:00 9.7 12 Noroeste 23 Oeste 0 -- -- 74
2020-10-26 11:00:00 7.7 3 Noroeste 12 Noroeste 0 -- -- 92
2020-10-26 10:00:00 5.4 3 Sur 6 Sudeste 0 -- -- 92
2020-10-26 09:00:00 2 0 Calma 6 Nordeste 0 -- -- 92
2020-10-26 08:00:00 1.3 4 Nordeste 6 Noroeste 0 -- -- 92
2020-10-26 07:00:00 1.9 2 Norte 7 Noroeste 0 -- -- 91
2020-10-26 06:00:00 2.3 4 Noroeste 13 Oeste 0 -- -- 91
2020-10-26 05:00:00 2.6 5 Oeste 12 Oeste 0 -- -- 91
2020-10-26 04:00:00 3.3 4 Noroeste 7 Noroeste 0 -- -- 90
2020-10-26 03:00:00 3.9 4 Noroeste 24 Oeste 1.1 -- -- 90
2020-10-26 02:00:00 4.4 7 Noroeste 17 Oeste 2 -- -- 90
2020-10-26 01:00:00 4.5 8 Oeste 19 Oeste 0.1 -- -- 89
2020-10-26 00:00:00 4.2 2 Sudeste 6 Sudeste 0.1 -- -- 89
2020-10-25 23:00:00 4.7 2 Sur 11 Oeste 0.4 -- -- 88
2020-10-25 22:00:00 5.1 6 Oeste 15 Oeste 0.2 -- -- 86
2020-10-25 21:00:00 4.9 5 Oeste 13 Oeste 0.2 -- -- 84
2020-10-25 20:00:00 5.6 10 Sudoeste 20 Sudoeste 0 -- -- 84
2020-10-25 19:00:00 6 4 Sudoeste 21 Oeste 0 -- -- 83
2020-10-25 18:00:00 7 7 Oeste 24 Noroeste 0.4 -- -- 79
2020-10-25 17:00:00 8.6 9 Oeste 23 Oeste 0 -- -- 71
2020-10-25 16:00:00 8.7 9 Oeste 31 Noroeste 0 -- -- 74
2020-10-25 15:00:00 8.7 15 Noroeste 38 Oeste 0.1 -- -- 79
2020-10-25 14:00:00 8 24 Noroeste 45 Oeste 0.3 -- -- 81
2020-10-25 13:00:00 11.4 10 Oeste 28 Oeste 0.1 -- -- 86
2020-10-25 12:00:00 11.5 14 Sudoeste 30 Oeste 0.8 -- -- 92
2020-10-25 11:00:00 10.4 8 Oeste 29 Oeste 1 -- -- 92
2020-10-25 10:00:00 9.8 8 Oeste 21 Sudoeste 0 -- -- 92
2020-10-25 09:00:00 9.1 9 Sudoeste 27 Oeste 1 -- -- 92
2020-10-25 08:00:00 9.4 12 Oeste 36 Oeste 0.9 -- -- 91
2020-10-25 07:00:00 9.9 9 Oeste 25 Oeste 0.2 -- -- 90
2020-10-25 06:00:00 10.4 6 Sudoeste 23 Oeste 2.2 -- -- 90
2020-10-25 05:00:00 11.6 10 Oeste 21 Sudoeste 7.1 -- -- 90
2020-10-25 04:00:00 11.4 5 Sudeste 12 Sudoeste 5 -- -- 89
2020-10-25 03:00:00 11.5 6 Sudeste 13 Sur 1.8 -- -- 87
2020-10-25 02:00:00 11.8 4 Sudoeste 24 Sudoeste 0.3 -- -- 85
2020-10-25 01:00:00 12.6 14 Sur 35 Sur 0 -- -- 76
2020-10-25 00:00:00 12.4 14 Sudoeste 42 Sudoeste 0 -- -- 82
2020-10-24 23:00:00 11.9 8 Sur 28 Sudoeste 0.8 -- -- 86
2020-10-24 22:00:00 12.3 10 Sudoeste 27 Sur 0.7 -- -- 82
2020-10-24 21:00:00 12.1 3 Sur 17 Sur 0.1 -- -- 79
2020-10-24 20:00:00 12.5 11 Sudeste 22 Sur 0 -- -- 76
2020-10-24 19:00:00 13.5 11 Sur 30 Sudoeste 0 -- -- 72
2020-10-24 18:00:00 13.5 17 Sudoeste 35 Sudoeste 0 -- -- 75
2020-10-24 17:00:00 13 5 Sudoeste 15 Oeste 0 -- -- 87
2020-10-24 16:00:00 12.2 2 Sudoeste 14 Sudoeste 0.3 -- -- 87
2020-10-24 15:00:00 12.4 3 Sur 26 Sudoeste 0 -- -- 84
2020-10-24 14:00:00 12.3 3 Norte 15 Sudoeste 0 -- -- 87
2020-10-24 13:00:00 11 6 Sudeste 23 Sudeste 0 -- -- 90
2020-10-24 12:00:00 10 5 Sudeste 14 Sudeste 0.2 -- -- 90
2020-10-24 11:00:00 9.1 10 Sudeste 17 Sudeste 0.2 -- -- 89
2020-10-24 10:00:00 8.7 10 Sudeste 18 Sudeste 0 -- -- 89
2020-10-24 09:00:00 8.2 11 Sudeste 19 Sudeste 0 -- -- 88
2020-10-24 08:00:00 8.1 4 Este 9 Este 0 -- -- 88
2020-10-24 07:00:00 8.2 6 Sudeste 13 Este 0 -- -- 88
2020-10-24 06:00:00 7.7 3 Sudeste 9 Sudeste 0 -- -- 88
2020-10-24 05:00:00 7.1 7 Sudeste 16 Sur 0 -- -- 89
2020-10-24 04:00:00 6.9 7 Sur 11 Sur 0 -- -- 89
2020-10-24 03:00:00 5.5 0 Calma 12 Sudeste 0 -- -- 89
2020-10-24 02:00:00 5.8 7 Sudeste 12 Sudeste 0 -- -- 89
2020-10-24 01:00:00 5.2 5 Sudeste 9 Sudeste 0 -- -- 88
2020-10-24 00:00:00 5.8 0 Calma 9 Sudoeste 0 -- -- 86
2020-10-23 23:00:00 6.9 4 Sudoeste 8 Sudoeste 0 -- -- 84
2020-10-23 22:00:00 8.5 2 Sudoeste 10 Oeste 0 -- -- 81
2020-10-23 21:00:00 9 5 Sudoeste 14 Oeste 0 -- -- 77
2020-10-23 20:00:00 10 5 Oeste 19 Oeste 0 -- -- 73
2020-10-23 19:00:00 10.8 9 Oeste 21 Oeste 0 -- -- 68
2020-10-23 18:00:00 11.4 9 Oeste 24 Oeste 0 -- -- 63
2020-10-23 17:00:00 12.9 10 Oeste 24 Oeste 0 -- -- 55
2020-10-23 16:00:00 13.3 9 Sudoeste 27 Oeste 0 -- -- 57
2020-10-23 15:00:00 12.5 10 Oeste 22 Oeste 0 -- -- 65
2020-10-23 14:00:00 12.5 6 Oeste 13 Noroeste 0 -- -- 73
2020-10-23 13:00:00 10.5 4 Oeste 13 Oeste 0 -- -- 89
2020-10-23 12:00:00 9.9 5 Sudoeste 12 Sudoeste 0 -- -- 92
2020-10-23 11:00:00 8.4 2 Sudoeste 6 Sudoeste 0 -- -- 92
2020-10-23 10:00:00 6 0 Calma 8 Sudeste 0 -- -- 92
2020-10-23 09:00:00 5.6 0 Calma -- -- 0 -- -- 92
2020-10-23 08:00:00 5.3 0 Calma 8 Sur 0 -- -- 92
2020-10-23 07:00:00 4.4 0 Calma 7 Sur 0 -- -- 92
2020-10-23 06:00:00 5.4 3 Sudeste 7 Sur 0 -- -- 92
2020-10-23 05:00:00 6.4 4 Sudeste 7 Sudeste 0 -- -- 92
2020-10-23 04:00:00 5.4 3 Sudeste 5 Sudeste 0 -- -- 91
2020-10-23 03:00:00 5.9 0 Calma 7 Sudeste 0 -- -- 91
2020-10-23 02:00:00 5.8 6 Sudeste 9 Sudeste 0 -- -- 90
2020-10-23 01:00:00 5.3 2 Este 9 Sudeste 0 -- -- 89
2020-10-23 00:00:00 6.4 0 Calma 8 Este 0 -- -- 89
2020-10-22 23:00:00 7.1 5 Sudeste 7 Sudeste 0 -- -- 87
2020-10-22 22:00:00 7.5 0 Calma 7 Sur 0 -- -- 86
2020-10-22 21:00:00 7.9 4 Sudoeste 11 Oeste 0 -- -- 82
2020-10-22 20:00:00 9.4 5 Sudoeste 24 Oeste 0 -- -- 75
2020-10-22 19:00:00 11.8 7 Oeste 21 Oeste 0 -- -- 67
2020-10-22 18:00:00 14.6 9 Oeste 25 Oeste 0 -- -- 61
2020-10-22 17:00:00 16.1 8 Oeste 23 Sudoeste 0 -- -- 53
2020-10-22 16:00:00 16 10 Oeste 24 Oeste 0.1 -- -- 52
2020-10-22 15:00:00 15.6 9 Sudoeste 23 Oeste 0 -- -- 57
2020-10-22 14:00:00 14.9 10 Sur 19 Sur 0 -- -- 60
2020-10-22 13:00:00 12.1 6 Sudoeste 15 Sudoeste 0 -- -- 81
2020-10-22 12:00:00 11.5 6 Sudoeste 19 Sudeste 0 -- -- 87
2020-10-22 11:00:00 10.5 10 Sudeste 19 Sudeste 0 -- -- 90
2020-10-22 10:00:00 9.2 8 Sudeste 17 Sur 0 -- -- 90
2020-10-22 09:00:00 8.6 3 Sudeste 10 Sudeste 0 -- -- 90
2020-10-22 08:00:00 8.8 0 Calma 12 Sur 0.5 -- -- 89
2020-10-22 07:00:00 9.1 7 Sur 20 Sudeste 0 -- -- 89
2020-10-22 06:00:00 8.6 10 Sudeste 19 Sur 0 -- -- 89
2020-10-22 05:00:00 8.6 11 Sudeste 20 Sudeste 0 -- -- 88
2020-10-22 04:00:00 7.4 9 Sudeste 16 Sudeste 0 -- -- 86
2020-10-22 03:00:00 7.8 8 Sudeste 17 Sudeste 0 -- -- 84
2020-10-22 02:00:00 7.9 6 Sudeste 13 Sur 0 -- -- 79
2020-10-22 01:00:00 8.4 5 Sudeste 13 Este 0 -- -- 75
2020-10-22 00:00:00 9.6 4 Sur 31 Sur 0 -- -- 71
2020-10-21 23:00:00 9.9 8 Sur 28 Sur 0 -- -- 74
2020-10-21 22:00:00 10.3 13 Sur 31 Sur 0 -- -- 77
2020-10-21 21:00:00 10.8 10 Sur 29 Sudeste 0 -- -- 79
2020-10-21 20:00:00 10.6 8 Sudeste 18 Sudeste 0 -- -- 82
2020-10-21 19:00:00 11.3 10 Sur 23 Sudeste 0 -- -- 79
2020-10-21 18:00:00 11.8 9 Sur 19 Sudeste 0.2 -- -- 78
2020-10-21 17:00:00 12.1 8 Sur 26 Sudeste 0.5 -- -- 73
2020-10-21 16:00:00 12.4 10 Sur 23 Sudoeste 0.9 -- -- 79
2020-10-21 15:00:00 12.9 6 Sudoeste 32 Sudoeste 0.1 -- -- 72
2020-10-21 14:00:00 12.9 16 Sur 28 Sudoeste 0.5 -- -- 82
2020-10-21 13:00:00 11.6 12 Sur 21 Sur 0.2 -- -- 86
2020-10-21 12:00:00 11.3 2 Oeste 19 Sur 0.3 -- -- 92
2020-10-21 11:00:00 10.9 4 Sur 14 Sur 0.2 -- -- 92
2020-10-21 10:00:00 9.1 5 Sur 11 Sur 0 -- -- 92
2020-10-21 09:00:00 8.4 0 Calma 8 Sudoeste 0 -- -- 92
2020-10-21 08:00:00 9.4 2 Noroeste 12 Sudoeste 0.1 -- -- 92
2020-10-21 07:00:00 9.8 8 Sudoeste 18 Sudoeste 0.1 -- -- 92
2020-10-21 06:00:00 10.2 0 Calma 17 Sur 0.5 -- -- 92
2020-10-21 05:00:00 10.5 7 Sudoeste 21 Oeste 0.1 -- -- 92
2020-10-21 04:00:00 10.7 4 Sur 26 Sudoeste 1.4 -- -- 92
2020-10-21 03:00:00 10.4 4 Sudeste 8 Sudeste 0.4 -- -- 92
2020-10-21 02:00:00 10.1 4 Sudeste 9 Sudoeste 0.2 -- -- 92
2020-10-21 01:00:00 10.5 4 Sudoeste 13 Sudoeste 1.6 -- -- 92
2020-10-21 00:00:00 10.5 0 Calma 13 Oeste 3.1 -- -- 92
2020-10-20 23:00:00 10.4 2 Sudoeste 7 Sudoeste 1 -- -- 92
2020-10-20 22:00:00 10.3 0 Calma 6 Oeste 1.6 -- -- 92
2020-10-20 21:00:00 10.5 3 Sudoeste 12 Sudeste 0.7 -- -- 92
2020-10-20 20:00:00 10.1 0 Calma 5 Sur 1.6 -- -- 91
2020-10-20 19:00:00 10.1 3 Este 16 Este 0.7 -- -- 91
2020-10-20 18:00:00 10.1 5 Sudeste 12 Sudeste 3.2 -- -- 90
2020-10-20 17:00:00 10.1 10 Sudeste 25 Sudeste 1.9 -- -- 89
2020-10-20 16:00:00 10.9 14 Sudeste 24 Sudeste 1.1 -- -- 87
2020-10-20 15:00:00 12 13 Sudeste 37 Sudeste 0.1 -- -- 79
2020-10-20 14:00:00 13.5 19 Sudeste 40 Sur 0.1 -- -- 74
2020-10-20 13:00:00 13.6 19 Sur 35 Sur 0 -- -- 79
2020-10-20 12:00:00 13.2 6 Sudeste 27 Sudeste 0 -- -- 84
2020-10-20 11:00:00 12.6 9 Sudeste 18 Sur 0 -- -- 84
2020-10-20 10:00:00 11.6 4 Este 12 Este 0 -- -- 85
2020-10-20 09:00:00 11.9 5 Sur 23 Sur 0 -- -- 88
2020-10-20 08:00:00 11.7 13 Sudeste 21 Sudeste 0 -- -- 92
2020-10-20 07:00:00 11.3 4 Sudeste 23 Sudeste 0 -- -- 92
2020-10-20 06:00:00 11.4 9 Sudeste 21 Sudeste 0 -- -- 92
2020-10-20 05:00:00 11.2 6 Sudeste 15 Este 0 -- -- 92
2020-10-20 04:00:00 11.4 8 Sudeste 22 Sudeste 0 -- -- 92
2020-10-20 03:00:00 11.3 11 Sur 23 Sudeste 0 -- -- 92
2020-10-20 02:00:00 11 15 Sudeste 30 Sudeste 0 -- -- 92
2020-10-20 01:00:00 11.1 15 Sudeste 31 Sudeste 0 -- -- 92
2020-10-20 00:00:00 11.2 19 Sudeste 34 Sudeste 0 -- -- 92
2020-10-19 23:00:00 11.2 13 Sudeste 29 Sudeste 0.3 -- -- 92
2020-10-19 22:00:00 11 18 Sudeste 31 Sudeste 0 -- -- 92
2020-10-19 21:00:00 11.4 6 Sudeste 21 Sudeste 0.3 -- -- 91
2020-10-19 20:00:00 11.2 9 Sudeste 25 Sur 1.2 -- -- 89
2020-10-19 19:00:00 11.3 9 Sur 30 Sudeste 1.6 -- -- 87
2020-10-19 18:00:00 11.5 14 Sudeste 41 Sur 2 -- -- 79
2020-10-19 17:00:00 13.7 21 Sudeste 43 Sudeste 0.3 -- -- 64
2020-10-19 16:00:00 14 20 Sudeste 41 Sudeste 0.1 -- -- 57
2020-10-19 15:00:00 16 18 Sudeste 42 Sudeste 0 -- -- 44
2020-10-19 14:00:00 16.8 20 Sudeste 42 Sur 0 -- -- 39
2020-10-19 13:00:00 16.4 22 Sudeste 46 Sudeste 0 -- -- 37
2020-10-19 12:00:00 16.3 24 Sudeste 46 Sudeste 0 -- -- 37
2020-10-19 11:00:00 15.4 28 Sudeste 55 Sudeste 0 -- -- 39
2020-10-19 10:00:00 14 20 Sur 41 Sudeste 0 -- -- 40
2020-10-19 09:00:00 12.8 19 Sudeste 31 Sudeste 0 -- -- 41
2020-10-19 08:00:00 13 13 Sur 30 Sudeste 0 -- -- 40
2020-10-19 07:00:00 13.8 14 Sudeste 35 Sudeste 0 -- -- 39
2020-10-19 06:00:00 13.2 10 Este 25 Sudeste 0 -- -- 42
2020-10-19 05:00:00 12.8 13 Sudeste 24 Sudeste 0 -- -- 44
2020-10-19 04:00:00 12.4 9 Sudeste 25 Sudeste 0 -- -- 46
2020-10-19 03:00:00 12.6 13 Sudeste 22 Sudeste 0 -- -- 45
2020-10-19 02:00:00 13.1 10 Sudeste 24 Sur 0 -- -- 44
2020-10-19 01:00:00 14.9 16 Sudeste 29 Sur 0 -- -- 41
2020-10-19 00:00:00 14.3 10 Sur 19 Sudeste 0 -- -- 43
2020-10-18 23:00:00 13.2 5 Sudeste 13 Sudeste 0 -- -- 46
2020-10-18 22:00:00 13.8 6 Sudeste 13 Sudeste 0 -- -- 42
2020-10-18 21:00:00 15.2 6 Sudeste 18 Sudeste 0 -- -- 38
2020-10-18 20:00:00 16.1 10 Sudeste 20 Sudeste 0 -- -- 36
2020-10-18 19:00:00 17.7 11 Sudeste 24 Sudeste 0 -- -- 32
2020-10-18 18:00:00 19.8 13 Sudeste 29 Este 0 -- -- 28
2020-10-18 17:00:00 20.7 14 Sudeste 29 Este 0 -- -- 30
2020-10-18 16:00:00 20.1 17 Sudeste 27 Sudeste 0 -- -- 32
2020-10-18 15:00:00 19.9 17 Sudeste 30 Sudeste 0 -- -- 34
2020-10-18 14:00:00 18.7 15 Sudeste 31 Sudeste 0 -- -- 37
2020-10-18 13:00:00 17.4 19 Sudeste 34 Sudeste 0 -- -- 44
2020-10-18 12:00:00 15.8 16 Sudeste 31 Sur 0 -- -- 50
2020-10-18 11:00:00 11.8 11 Sudeste 21 Sudeste 0 -- -- 79
2020-10-18 10:00:00 9.1 3 Sudeste 9 Sur 0 -- -- 91
2020-10-18 09:00:00 8.5 5 Sur 15 Sudeste 0 -- -- 92
2020-10-18 08:00:00 8.4 10 Sudeste 17 Sudeste 0 -- -- 92
2020-10-18 07:00:00 7.2 0 Calma 10 Sur 0 -- -- 92
2020-10-18 06:00:00 8.5 8 Sudeste 14 Sudeste 0 -- -- 92
2020-10-18 05:00:00 4.5 0 Calma 9 Sudoeste 0 -- -- 92
2020-10-18 04:00:00 8.7 9 Sudeste 18 Sudeste 0 -- -- 92
2020-10-18 03:00:00 8.3 11 Sudeste 17 Sudeste 0 -- -- 92
2020-10-18 02:00:00 5.1 4 Sudoeste 7 Sudoeste 0 -- -- 91
2020-10-18 01:00:00 5.9 3 Sudoeste 7 Sudeste 0 -- -- 90
2020-10-18 00:00:00 5.2 0 Calma 4 Sur 0 -- -- 88
2020-10-17 23:00:00 6.5 0 Calma 6 Este 0 -- -- 85
2020-10-17 22:00:00 8.5 0 Calma 7 Oeste 0 -- -- 82
2020-10-17 21:00:00 11 2 Sudoeste 14 Oeste 0 -- -- 78
2020-10-17 20:00:00 13.3 7 Oeste 14 Sudoeste 0 -- -- 66
2020-10-17 19:00:00 16.6 4 Oeste 13 Oeste 0 -- -- 55
2020-10-17 18:00:00 18.4 8 Sudoeste 21 Noroeste 0 -- -- 50
2020-10-17 17:00:00 18.4 8 Oeste 23 Noroeste 0 -- -- 49
2020-10-17 16:00:00 17.7 8 Oeste 19 Oeste 0 -- -- 50
2020-10-17 15:00:00 17.7 2 Sudeste 19 Sudeste 0 -- -- 44
2020-10-17 14:00:00 15.8 10 Sudeste 21 Sudeste 0 -- -- 45
2020-10-17 13:00:00 14.5 10 Este 19 Sudeste 0 -- -- 49
2020-10-17 12:00:00 12.3 8 Sudeste 17 Sudeste 0 -- -- 55
2020-10-17 11:00:00 9.3 6 Sudeste 11 Sudeste 0 -- -- 90
2020-10-17 10:00:00 4.7 6 Sudoeste 10 Oeste 0 -- -- 92
2020-10-17 09:00:00 3.1 3 Sudoeste 10 Oeste 0 -- -- 92
2020-10-17 08:00:00 2.6 4 Sudoeste 11 Oeste 0 -- -- 92
2020-10-17 07:00:00 1.7 0 Calma 8 Sur 0 -- -- 91
2020-10-17 06:00:00 1.4 2 Sudoeste 9 Oeste 0 -- -- 90
2020-10-17 05:00:00 1.4 0 Calma 7 Sudoeste 0 -- -- 89
2020-10-17 04:00:00 2.2 0 Calma 8 Oeste 0 -- -- 89
2020-10-17 03:00:00 2.6 4 Noroeste 6 Sudeste 0 -- -- 88
2020-10-17 02:00:00 3.4 4 Sudoeste 8 Sudoeste 0 -- -- 87
2020-10-17 01:00:00 3.4 0 Calma 6 Sudoeste 0 -- -- 86
2020-10-17 00:00:00 4.2 0 Calma 5 Norte 0 -- -- 82
2020-10-16 23:00:00 5.5 0 Calma 4 Este 0 -- -- 75
2020-10-16 22:00:00 8 0 Calma 8 Sudoeste 0 -- -- 66
2020-10-16 21:00:00 9.1 2 Sudoeste 7 Oeste 0 -- -- 58
2020-10-16 20:00:00 11.5 0 Calma 12 Oeste 0 -- -- 47
2020-10-16 19:00:00 15.3 7 Oeste 14 Oeste 0 -- -- 37
2020-10-16 18:00:00 17.1 7 Este 17 Nordeste 0 -- -- 36
2020-10-16 17:00:00 16.8 10 Este 21 Sudeste 0 -- -- 36
2020-10-16 16:00:00 16.4 9 Sudeste 24 Sudeste 0 -- -- 36
2020-10-16 15:00:00 15.2 13 Sudeste 27 Sudeste 0 -- -- 38
2020-10-16 14:00:00 13.6 15 Sudeste 32 Sudeste 0 -- -- 41
2020-10-16 13:00:00 12.1 18 Sudeste 36 Sudeste 0 -- -- 45
2020-10-16 12:00:00 10.2 21 Sudeste 38 Sudeste 0 -- -- 51
2020-10-16 11:00:00 7.8 18 Sudeste 36 Sudeste 0 -- -- 75
2020-10-16 10:00:00 0.8 0 Calma 12 Sudeste 0 -- -- 92
2020-10-16 09:00:00 -1.8 4 Sudoeste 12 Sudeste 0 -- -- 93
2020-10-16 08:00:00 -1.6 3 Sudeste 13 Sur 0 -- -- 92
2020-10-16 07:00:00 -1.6 4 Sudoeste 9 Sur 0 -- -- 92
2020-10-16 06:00:00 -1.5 0 Calma 5 Sur 0 -- -- 92
2020-10-16 05:00:00 -1.3 0 Calma -- -- 0 -- -- 92
2020-10-16 04:00:00 -0.6 0 Calma 7 Oeste 0 -- -- 90
2020-10-16 03:00:00 -0.2 2 Oeste 5 Noroeste 0 -- -- 90
2020-10-16 02:00:00 1 0 Calma 7 Sudoeste 0 -- -- 89
2020-10-16 01:00:00 2.5 4 Sudoeste 9 Sudoeste 0 -- -- 87
2020-10-16 00:00:00 3.2 3 Sudoeste 10 Sudoeste 0 -- -- 85
2020-10-15 23:00:00 5.1 5 Sudoeste 8 Sudoeste 0 -- -- 82
2020-10-15 22:00:00 6.5 4 Oeste 11 Sudoeste 0 -- -- 79
2020-10-15 21:00:00 7 0 Calma 18 Norte 0 -- -- 72
2020-10-15 20:00:00 8.8 10 Norte 17 Norte 0 -- -- 68
2020-10-15 19:00:00 -- 11 Norte 21 Norte 0 -- -- --
2020-10-15 18:00:00 12.1 10 Norte 21 Norte 0 -- -- 58
2020-10-15 17:00:00 12.2 13 Norte 26 Norte 0 -- -- 57
2020-10-15 16:00:00 12.8 17 Norte 24 Norte 0 -- -- 52
2020-10-15 15:00:00 12.4 13 Norte 27 Norte 0 -- -- 55
2020-10-15 14:00:00 11.2 15 Norte 24 Nordeste 0 -- -- 63
2020-10-15 13:00:00 11.1 9 Norte 19 Norte 0 -- -- 75
2020-10-15 12:00:00 9.1 11 Norte 20 Noroeste 0 -- -- 84
2020-10-15 11:00:00 7.7 8 Norte 12 Norte 0 -- -- 93
2020-10-15 10:00:00 5.5 2 Oeste 6 Oeste 0 -- -- 93
2020-10-15 09:00:00 4.2 2 Sudoeste 7 Oeste 0 -- -- 92
2020-10-15 08:00:00 4.2 5 Oeste 8 Sudoeste 0 -- -- 92
2020-10-15 07:00:00 3.6 3 Sudoeste 5 Sudoeste 0 -- -- 92
2020-10-15 06:00:00 2.8 2 Oeste 5 Oeste 0 -- -- 91
2020-10-15 05:00:00 4.7 3 Sudoeste 5 Sudoeste 0 -- -- 90
2020-10-15 04:00:00 6 2 Noroeste 10 Oeste 0 -- -- 90
2020-10-15 03:00:00 6.2 4 Oeste 11 Oeste 0 -- -- 90
2020-10-15 02:00:00 6.1 4 Oeste 11 Oeste 0 -- -- 90
2020-10-15 01:00:00 5.5 3 Sudoeste 8 Oeste 0 -- -- 89
2020-10-15 00:00:00 4.6 3 Sudoeste 9 Sudoeste 0 -- -- 87
2020-10-14 23:00:00 5.5 4 Sudoeste 18 Noroeste 0 -- -- 86
2020-10-14 22:00:00 6.8 13 Norte 18 Norte 0 -- -- 86
2020-10-14 21:00:00 7.8 11 Noroeste 19 Noroeste 0 -- -- 86
2020-10-14 20:00:00 7.9 7 Nordeste 18 Noroeste 0 -- -- 84
2020-10-14 19:00:00 9.6 13 Norte 21 Noroeste 0.1 -- -- 79
2020-10-14 18:00:00 10.7 13 Norte 23 Norte 0 -- -- 79
2020-10-14 17:00:00 10 10 Norte 23 Norte 1.7 -- -- 83
2020-10-14 16:00:00 12.4 15 Noroeste 26 Norte 0 -- -- 63
2020-10-14 15:00:00 12 13 Noroeste 27 Noroeste 0 -- -- 60
2020-10-14 14:00:00 10.6 11 Noroeste 26 Noroeste 0 -- -- 76
2020-10-14 13:00:00 11.3 14 Norte 24 Noroeste 0 -- -- 68
2020-10-14 12:00:00 9.9 14 Norte 28 Norte 0 -- -- 74
2020-10-14 11:00:00 8.3 12 Norte 23 Noroeste 0 -- -- 82
2020-10-14 10:00:00 7.3 12 Noroeste 18 Norte 0 -- -- 87
2020-10-14 09:00:00 7 7 Noroeste 17 Norte 0 -- -- 87
2020-10-14 08:00:00 7 12 Noroeste 19 Noroeste 0 -- -- 88
2020-10-14 07:00:00 6.9 8 Noroeste 16 Noroeste 0 -- -- 88
2020-10-14 06:00:00 6.7 12 Noroeste 20 Noroeste 0 -- -- 88
2020-10-14 05:00:00 6.8 4 Noroeste 19 Noroeste 0 -- -- 88
2020-10-14 04:00:00 7.1 7 Noroeste 13 Noroeste 0 -- -- 86
2020-10-14 03:00:00 7 7 Noroeste 16 Noroeste 0 -- -- 86
2020-10-14 02:00:00 6.9 10 Norte 19 Noroeste 0 -- -- 86
2020-10-14 01:00:00 6.8 12 Norte 21 Noroeste 0 -- -- 84
2020-10-14 00:00:00 7 10 Norte 20 Noroeste 0 -- -- 82
2020-10-13 23:00:00 7.1 11 Noroeste 18 Noroeste 0 -- -- 79
2020-10-13 22:00:00 7.7 8 Noroeste 20 Norte 0 -- -- 77
2020-10-13 21:00:00 8.7 14 Noroeste 26 Norte 0 -- -- 74
2020-10-13 20:00:00 9.8 13 Noroeste 28 Norte 0 -- -- 65
2020-10-13 19:00:00 11.7 13 Norte 29 Norte 0 -- -- 60
2020-10-13 18:00:00 12.2 14 Norte 27 Norte 0 -- -- 61
2020-10-13 17:00:00 12.3 18 Norte 30 Noroeste 0 -- -- 60
2020-10-13 16:00:00 13.2 19 Noroeste 27 Norte 0 -- -- 61
2020-10-13 15:00:00 13.5 20 Norte 31 Norte 0 -- -- 63
2020-10-13 14:00:00 14.2 16 Noroeste 31 Norte 0 -- -- 68
2020-10-13 13:00:00 14.8 15 Noroeste 26 Noroeste 0 -- -- 67
2020-10-13 12:00:00 14.3 12 Norte 26 Norte 0 -- -- 79
2020-10-13 11:00:00 -- -- -- -- -- -- -- -- --
2020-10-13 10:00:00 -- -- -- -- -- -- -- -- --
2020-10-13 09:00:00 12.1 5 Oeste 13 Oeste 0 -- -- 92
2020-10-13 08:00:00 11.8 6 Oeste 13 Oeste 0 -- -- 92
2020-10-13 07:00:00 11.8 5 Oeste 12 Oeste 0 -- -- 91
2020-10-13 06:00:00 12.1 5 Oeste 9 Oeste 0 -- -- 91
2020-10-13 05:00:00 11.9 5 Noroeste 12 Oeste 0 -- -- 91
2020-10-13 04:00:00 12 6 Oeste 9 Oeste 0 -- -- 90
2020-10-13 03:00:00 12.1 5 Oeste 11 Oeste 0 -- -- 89
2020-10-13 02:00:00 12.7 4 Oeste 13 Oeste 0 -- -- 88
2020-10-13 01:00:00 -- -- -- -- -- -- -- -- --
2020-10-13 00:00:00 13 4 Oeste 12 Sudoeste 0 -- -- 87
2020-10-12 23:00:00 13.2 4 Oeste 14 Oeste 0 -- -- 86
2020-10-12 22:00:00 13.1 6 Noroeste 13 Noroeste 0 -- -- 85
2020-10-12 21:00:00 13.3 7 Noroeste 13 Oeste 0 -- -- 82
2020-10-12 20:00:00 13.7 10 Noroeste 15 Norte 0 -- -- 78
2020-10-12 19:00:00 14.4 10 Noroeste 18 Noroeste 0 -- -- 72
2020-10-12 18:00:00 15.7 12 Norte 26 Norte 0 -- -- 65
2020-10-12 17:00:00 16.7 16 Noroeste 25 Noroeste 0 -- -- 57
2020-10-12 16:00:00 16.7 14 Noroeste 25 Norte 0 -- -- 53
2020-10-12 15:00:00 15.8 15 Norte 23 Norte 0 -- -- 53
2020-10-12 14:00:00 14.8 16 Norte 25 Norte 0 -- -- 52
2020-10-12 13:00:00 12.3 9 Nordeste 15 Norte 0 -- -- 59
2020-10-12 12:00:00 10.1 4 Este 10 Sudeste 0 -- -- 81
2020-10-12 11:00:00 6 2 Este 6 Sudeste 0 -- -- 91
2020-10-12 10:00:00 0.7 0 Calma -- -- 0 -- -- 91
2020-10-12 09:00:00 -2.5 0 Calma 5 Sur 0 -- -- 91
2020-10-12 08:00:00 -1.9 0 Calma 6 Sur 0 -- -- 91
2020-10-12 07:00:00 -1 0 Calma 5 Sudoeste 0 -- -- 90
2020-10-12 06:00:00 -0.1 0 Calma 6 Sur 0 -- -- 89
2020-10-12 05:00:00 0.9 0 Calma 8 Sudoeste 0 -- -- 89
2020-10-12 04:00:00 -- -- -- -- -- -- -- -- --
2020-10-12 03:00:00 1.9 4 Sur 7 Oeste 0 -- -- 84
2020-10-12 02:00:00 4 4 Sudoeste 10 Noroeste 0 -- -- 82
2020-10-12 01:00:00 4.6 3 Oeste 14 Norte 0 -- -- 79
2020-10-12 00:00:00 5.9 12 Norte 24 Norte 0 -- -- 79
2020-10-11 23:00:00 6 15 Norte 21 Norte 0 -- -- 77
2020-10-11 22:00:00 8.1 9 Noroeste 13 Noroeste 0 -- -- 63
2020-10-11 21:00:00 -- -- -- -- -- -- -- -- --
2020-10-11 20:00:00 -- -- -- -- -- -- -- -- --
2020-10-11 19:00:00 13.9 20 Norte 32 Norte 0 -- -- 44
2020-10-11 18:00:00 -- -- -- -- -- -- -- -- --
2020-10-11 17:00:00 16.3 17 Norte 33 Norte 0 -- -- 42
2020-10-11 16:00:00 16.4 19 Norte 33 Norte 0 -- -- 41
2020-10-11 15:00:00 16.2 20 Norte 31 Norte 0 -- -- 43
2020-10-11 14:00:00 14.2 14 Norte 24 Norte 0 -- -- 50
2020-10-11 13:00:00 12.5 11 Nordeste 21 Nordeste 0 -- -- 66
2020-10-11 12:00:00 10.1 4 Nordeste 10 Nordeste 0 -- -- 89
2020-10-11 11:00:00 7.8 4 Norte 9 Norte 0 -- -- 93
2020-10-11 10:00:00 6 3 Sudoeste 7 Sur 0 -- -- 93
2020-10-11 09:00:00 4.2 0 Calma 8 Norte 0 -- -- 93
2020-10-11 08:00:00 4 3 Norte 6 Norte 0 -- -- 92
2020-10-11 07:00:00 2.7 0 Calma 4 Oeste 0 -- -- 92
2020-10-11 06:00:00 3.5 0 Calma 7 Sudoeste 0 -- -- 92
2020-10-11 05:00:00 4 5 Sur 7 Sudoeste 0 -- -- 91
2020-10-11 04:00:00 3.7 3 Sudoeste 6 Sudoeste 0 -- -- 90
2020-10-11 03:00:00 4.4 2 Sudoeste 6 Sudoeste 0 -- -- 90
2020-10-11 02:00:00 5.5 5 Sudoeste 7 Sudoeste 0 -- -- 88
2020-10-11 01:00:00 6 4 Sudoeste 7 Sur 0 -- -- 86
2020-10-11 00:00:00 6.7 3 Sudoeste 7 Sudoeste 0 -- -- 83
2020-10-10 23:00:00 8.1 2 Sudoeste 10 Noroeste 0 -- -- 78
2020-10-10 22:00:00 9.3 4 Oeste 12 Norte 0 -- -- 71
2020-10-10 21:00:00 10.4 5 Norte 13 Norte 0 -- -- 67
2020-10-10 20:00:00 12.5 8 Norte 26 Noroeste 0 -- -- 61
2020-10-10 19:00:00 15.4 19 Noroeste 30 Norte 0 -- -- 55
2020-10-10 18:00:00 17.1 18 Norte 28 Noroeste 0 -- -- 52
2020-10-10 17:00:00 17 14 Noroeste 27 Norte 0 -- -- 55
2020-10-10 16:00:00 17.7 12 Norte 23 Norte 0 -- -- 55
2020-10-10 15:00:00 16.7 8 Noroeste 20 Noroeste 0 -- -- 61
2020-10-10 14:00:00 15.3 9 Noroeste 22 Norte 0 -- -- 71
2020-10-10 13:00:00 14.1 12 Norte 22 Norte 0 -- -- 76
2020-10-10 12:00:00 12.2 8 Norte 14 Noroeste 0 -- -- 88
2020-10-10 11:00:00 10.9 8 Norte 14 Norte 0 -- -- 91
2020-10-10 10:00:00 10.6 4 Norte 15 Norte 0 -- -- 92
2020-10-10 09:00:00 10.5 4 Norte 8 Noroeste 0 -- -- 92
2020-10-10 08:00:00 10.3 2 Oeste 12 Oeste 0 -- -- 92
2020-10-10 07:00:00 10.3 5 Oeste 10 Noroeste 0 -- -- 92
2020-10-10 06:00:00 10.4 5 Noroeste 13 Noroeste 0 -- -- 92
2020-10-10 05:00:00 10.5 4 Noroeste 12 Noroeste 0 -- -- 92
2020-10-10 04:00:00 10.5 6 Norte 14 Norte 0 -- -- 92
2020-10-10 03:00:00 9.9 3 Noroeste 12 Oeste 0 -- -- 91
2020-10-10 02:00:00 8.4 0 Calma 5 Sur 0 -- -- 89
2020-10-10 01:00:00 8.9 0 Calma 9 Noroeste 0 -- -- 88
2020-10-10 00:00:00 10.4 6 Oeste 10 Oeste 0 -- -- 86
2020-10-09 23:00:00 11.4 5 Sudoeste 10 Noroeste 0 -- -- 80
2020-10-09 22:00:00 13.4 6 Noroeste 10 Noroeste 0 -- -- 76
2020-10-09 21:00:00 14.5 6 Noroeste 13 Noroeste 0 -- -- 68
2020-10-09 20:00:00 16 6 Noroeste 16 Noroeste 0 -- -- 62
2020-10-09 19:00:00 18.4 13 Noroeste 21 Noroeste 0 -- -- 55
2020-10-09 18:00:00 19.6 10 Norte 17 Norte 0 -- -- 49
2020-10-09 17:00:00 19.4 10 Noroeste 21 Norte 0 -- -- 52
2020-10-09 16:00:00 18.6 12 Norte 19 Norte 0 -- -- 52
2020-10-09 15:00:00 17.1 12 Norte 23 Nordeste 0 -- -- 66
2020-10-09 14:00:00 15.3 13 Nordeste 21 Nordeste 0 -- -- 87
2020-10-09 13:00:00 14.9 9 Nordeste 14 Nordeste 0 -- -- 92
2020-10-09 12:00:00 13.2 2 Norte 9 Norte 0 -- -- 93
2020-10-09 11:00:00 12.6 3 Oeste 11 Oeste 0 -- -- 93
2020-10-09 10:00:00 11.7 3 Oeste 6 Oeste 0 -- -- 93
2020-10-09 09:00:00 11.1 0 Calma 6 Sudoeste 0.1 -- -- 93
2020-10-09 08:00:00 11 0 Calma 6 Sudoeste 0 -- -- 93
2020-10-09 07:00:00 10.9 0 Calma 6 Sudoeste 0 -- -- 93
2020-10-09 06:00:00 10.6 0 Calma -- -- 0 -- -- 93
2020-10-09 05:00:00 9.9 0 Calma 4 Sur 0.1 -- -- 92
2020-10-09 04:00:00 9.3 0 Calma -- -- 0 -- -- 92
2020-10-09 03:00:00 9.1 0 Calma 5 Sudoeste 0 -- -- 92
2020-10-09 02:00:00 9.2 0 Calma 2 Nordeste 0 -- -- 91
2020-10-09 01:00:00 9.2 0 Calma 6 Nordeste 0 -- -- 89
2020-10-09 00:00:00 11.3 4 Sudoeste 6 Sudoeste 0 -- -- 88
2020-10-08 23:00:00 12.7 3 Sur 6 Nordeste 0 -- -- 85
2020-10-08 22:00:00 14.9 0 Calma 9 Noroeste 0 -- -- 82
2020-10-08 21:00:00 15.9 0 Calma 10 Oeste 0 -- -- 77
2020-10-08 20:00:00 17.8 4 Norte 12 Noroeste 0 -- -- 71
2020-10-08 19:00:00 20.2 10 Norte 21 Norte 0 -- -- 60
2020-10-08 18:00:00 21.3 14 Norte 22 Norte 0 -- -- 53
2020-10-08 17:00:00 22.7 14 Norte 21 Norte 0 -- -- 49
2020-10-08 16:00:00 23.5 12 Norte 19 Noroeste 0 -- -- 45
2020-10-08 15:00:00 23.9 4 Este 18 Este 0 -- -- 42
2020-10-08 14:00:00 21.9 12 Este 21 Este 0 -- -- 48
2020-10-08 13:00:00 19.5 12 Sudeste 20 Sudeste 0 -- -- 90
2020-10-08 12:00:00 11.9 3 Oeste 7 Oeste 0 -- -- 93
2020-10-08 11:00:00 8.9 0 Calma 4 Sudoeste 0 -- -- 93
2020-10-08 10:00:00 7.5 0 Calma 7 Sudoeste 0 -- -- 93
2020-10-08 09:00:00 5.8 0 Calma 5 Sudoeste 0.1 -- -- 93
2020-10-08 08:00:00 5.9 0 Calma -- -- 0 -- -- 93
2020-10-08 07:00:00 5.5 0 Calma -- -- 0 -- -- 92
2020-10-08 06:00:00 5.6 0 Calma -- -- 0 -- -- 92
2020-10-08 05:00:00 6.3 0 Calma -- -- 0 -- -- 92
2020-10-08 04:00:00 7 0 Calma -- -- 0 -- -- 92
2020-10-08 03:00:00 7.3 0 Calma -- -- 0 -- -- 91
2020-10-08 02:00:00 7.7 0 Calma -- -- 0 -- -- 90
2020-10-08 01:00:00 9.5 0 Calma 5 Sudoeste 0 -- -- 89
2020-10-08 00:00:00 11.1 3 Sudoeste 8 Sudoeste 0 -- -- 88
2020-10-07 23:00:00 12 4 Sudoeste 6 Sudoeste 0 -- -- 85
2020-10-07 22:00:00 12.9 0 Calma 7 Sudoeste 0 -- -- 80
2020-10-07 21:00:00 15.4 5 Oeste 8 Oeste 0 -- -- 70
2020-10-07 20:00:00 17.4 4 Noroeste 13 Noroeste 0 -- -- 64
2020-10-07 19:00:00 19.7 11 Noroeste 22 Norte 0 -- -- 58
2020-10-07 18:00:00 20.6 13 Norte 21 Norte 0 -- -- 58
2020-10-07 17:00:00 21 12 Norte 21 Norte 0 -- -- 57
2020-10-07 16:00:00 21.3 9 Norte 17 Nordeste 0 -- -- 57
2020-10-07 15:00:00 20.5 8 Noroeste 15 Norte 0 -- -- 62
2020-10-07 14:00:00 19.6 4 Nordeste 13 Noroeste 0 -- -- 65
2020-10-07 13:00:00 18 6 Nordeste 13 Nordeste 0 -- -- 81
2020-10-07 12:00:00 15.6 5 Norte 9 Norte 0 -- -- 92
2020-10-07 11:00:00 13.6 0 Calma 5 Noroeste 0 -- -- 92
2020-10-07 10:00:00 12.5 0 Calma 4 Sudoeste 0 -- -- 92
2020-10-07 09:00:00 11.3 0 Calma 5 Sur 0 -- -- 92
2020-10-07 08:00:00 11.1 4 Sur 6 Noroeste 0 -- -- 92
2020-10-07 07:00:00 11.4 2 Norte 5 Sudoeste 0 -- -- 91
2020-10-07 06:00:00 11.6 5 Sur 7 Sur 0.1 -- -- 90
2020-10-07 05:00:00 11.6 0 Calma 5 Nordeste 0.1 -- -- 89
2020-10-07 04:00:00 11.7 0 Calma 5 Sudoeste 0 -- -- 89
2020-10-07 03:00:00 11.6 0 Calma 3 Este 0 -- -- 88
2020-10-07 02:00:00 11.7 0 Calma 5 Oeste 0 -- -- 88
2020-10-07 01:00:00 11.9 3 Oeste 8 Noroeste 0 -- -- 88
2020-10-07 00:00:00 11.7 0 Calma 11 Nordeste 0 -- -- 87
2020-10-06 23:00:00 11.4 5 Nordeste 11 Nordeste 0 -- -- 85
2020-10-06 22:00:00 12.4 6 Oeste 15 Noroeste 0 -- -- 82
2020-10-06 21:00:00 13 11 Noroeste 21 Noroeste 0 -- -- 78
2020-10-06 20:00:00 14.6 11 Noroeste 22 Noroeste 0 -- -- 72
2020-10-06 19:00:00 16.4 12 Noroeste 30 Noroeste 0 -- -- 67
2020-10-06 18:00:00 17.2 17 Noroeste 31 Noroeste 0 -- -- 63
2020-10-06 17:00:00 20.8 9 Oeste 29 Oeste 0 -- -- 52
2020-10-06 16:00:00 20.9 9 Sudoeste 25 Oeste 0 -- -- 53
2020-10-06 15:00:00 19.4 7 Sudoeste 21 Sudoeste 0 -- -- 63
2020-10-06 14:00:00 17.9 10 Oeste 25 Sudoeste 0 -- -- 71
2020-10-06 13:00:00 17.3 7 Sudoeste 20 Sudoeste 0 -- -- 87
2020-10-06 12:00:00 16.1 7 Oeste 20 Oeste 0 -- -- 92
2020-10-06 11:00:00 16 6 Sudoeste 17 Sudoeste 0 -- -- 93
2020-10-06 10:00:00 13.7 3 Sur 18 Oeste 0 -- -- 93
2020-10-06 09:00:00 13.3 9 Oeste 19 Oeste 0 -- -- 93
2020-10-06 08:00:00 13.3 7 Sudoeste 21 Oeste 0.3 -- -- 92
2020-10-06 07:00:00 13.3 6 Oeste 17 Sudoeste 0 -- -- 92
2020-10-06 06:00:00 13.1 7 Oeste 21 Sudoeste 0 -- -- 92
2020-10-06 05:00:00 13.1 8 Oeste 22 Oeste 0 -- -- 92
2020-10-06 04:00:00 12.9 6 Oeste 18 Sudoeste 0 -- -- 92
2020-10-06 03:00:00 12.8 6 Oeste 17 Oeste 0 -- -- 92
2020-10-06 02:00:00 12.8 6 Oeste 16 Oeste 0 -- -- 92
2020-10-06 01:00:00 12.7 10 Oeste 21 Oeste 0 -- -- 92
2020-10-06 00:00:00 12.6 7 Oeste 26 Oeste 0 -- -- 92
2020-10-05 23:00:00 12.4 13 Oeste 24 Oeste 0 -- -- 92
2020-10-05 22:00:00 12.4 8 Oeste 28 Oeste 0 -- -- 91
2020-10-05 21:00:00 12.4 11 Oeste 27 Oeste 0 -- -- 90
2020-10-05 20:00:00 12.6 7 Oeste 24 Oeste 0 -- -- 88
2020-10-05 19:00:00 12.9 6 Sudoeste 21 Sudoeste 0 -- -- 86
2020-10-05 18:00:00 13.3 8 Oeste 22 Oeste 0 -- -- 83
2020-10-05 17:00:00 13.9 10 Sudoeste 28 Oeste 0 -- -- 81
2020-10-05 16:00:00 13.9 9 Oeste 25 Oeste 0 -- -- 80
2020-10-05 15:00:00 13.9 8 Oeste 23 Oeste 0 -- -- 84
2020-10-05 14:00:00 12.9 4 Sudoeste 10 Sudeste 0 -- -- 90
2020-10-05 13:00:00 11.5 5 Sudeste 9 Sudeste 0.1 -- -- 91
2020-10-05 12:00:00 10.4 4 Oeste 10 Oeste 0 -- -- 91
2020-10-05 11:00:00 9.4 4 Oeste 14 Oeste 0 -- -- 91
2020-10-05 10:00:00 8.8 4 Noroeste 10 Nordeste 0 -- -- 91
2020-10-05 09:00:00 8.2 2 Noroeste 15 Oeste 0 -- -- 91
2020-10-05 08:00:00 8.6 6 Noroeste 12 Oeste 0 -- -- 91
2020-10-05 07:00:00 8.5 7 Noroeste 14 Noroeste 0 -- -- 91
2020-10-05 06:00:00 8.4 5 Noroeste 19 Oeste 0.2 -- -- 90
2020-10-05 05:00:00 8.5 9 Oeste 15 Oeste 0 -- -- 90
2020-10-05 04:00:00 8.5 7 Oeste 10 Oeste 0 -- -- 90
2020-10-05 03:00:00 8.6 5 Noroeste 20 Oeste 0 -- -- 90
2020-10-05 02:00:00 8.9 12 Oeste 22 Noroeste 0 -- -- 90
2020-10-05 01:00:00 8.7 8 Noroeste 19 Oeste 0.3 -- -- 90
2020-10-05 00:00:00 8.8 10 Oeste 18 Oeste 0 -- -- 89
2020-10-04 23:00:00 8.5 8 Oeste 18 Oeste 0.1 -- -- 87
2020-10-04 22:00:00 8.9 12 Oeste 26 Noroeste 0 -- -- 83
2020-10-04 21:00:00 9.4 14 Oeste 23 Oeste 0 -- -- 79
2020-10-04 20:00:00 10 12 Oeste 35 Oeste 0 -- -- 79
2020-10-04 19:00:00 10.6 20 Oeste 37 Noroeste 0 -- -- 75
2020-10-04 18:00:00 11.8 19 Oeste 40 Oeste 0 -- -- 69
2020-10-04 17:00:00 12.8 16 Oeste 36 Oeste 0 -- -- 75
2020-10-04 16:00:00 10.8 12 Oeste 37 Noroeste 0.4 -- -- 85
2020-10-04 15:00:00 10.9 12 Oeste 32 Oeste 0.2 -- -- 80
2020-10-04 14:00:00 10.7 18 Noroeste 35 Oeste 0.1 -- -- 76
2020-10-04 13:00:00 10.9 16 Noroeste 30 Oeste 0.1 -- -- 79
2020-10-04 12:00:00 9.4 14 Noroeste 32 Oeste 0 -- -- 81
2020-10-04 11:00:00 10.1 13 Noroeste 27 Oeste 0 -- -- 78
2020-10-04 10:00:00 8.8 6 Oeste 16 Oeste 0 -- -- 88
2020-10-04 09:00:00 8.9 13 Oeste 28 Oeste 0 -- -- 90
2020-10-04 08:00:00 9 7 Oeste 15 Oeste 0 -- -- 90
2020-10-04 07:00:00 9.1 5 Oeste 16 Noroeste 0 -- -- 91
2020-10-04 06:00:00 9.5 4 Sudoeste 23 Oeste 0 -- -- 92
2020-10-04 05:00:00 9.5 7 Oeste 22 Sudoeste 0.6 -- -- 92
2020-10-04 04:00:00 9.5 9 Sudoeste 21 Sudoeste 0 -- -- 91
2020-10-04 03:00:00 8.5 7 Sudeste 14 Sudeste 0 -- -- 90
2020-10-04 02:00:00 8.8 4 Sudoeste 17 Oeste 0 -- -- 90
2020-10-04 01:00:00 8.2 5 Oeste 15 Oeste 0 -- -- 90
2020-10-04 00:00:00 7.7 8 Oeste 15 Oeste 0 -- -- 90
2020-10-03 23:00:00 7.3 6 Oeste 15 Noroeste 0 -- -- 88
2020-10-03 22:00:00 7.2 0 Calma 6 Noroeste 0 -- -- 86
2020-10-03 21:00:00 8.7 4 Noroeste 23 Noroeste 0.1 -- -- 83
2020-10-03 20:00:00 10.2 6 Sudoeste 21 Oeste 0 -- -- 71
2020-10-03 19:00:00 11 9 Noroeste 27 Oeste 0 -- -- 67
2020-10-03 18:00:00 12.6 15 Oeste 35 Oeste 0 -- -- 62
2020-10-03 17:00:00 12.2 17 Oeste 36 Oeste 0 -- -- 60
2020-10-03 16:00:00 11.5 18 Oeste 34 Oeste 0 -- -- 62
2020-10-03 15:00:00 11.5 18 Noroeste 31 Oeste 0 -- -- 63
2020-10-03 14:00:00 11.1 16 Noroeste 30 Oeste 0 -- -- 68
2020-10-03 13:00:00 10.2 12 Noroeste 33 Oeste 0 -- -- 70
2020-10-03 12:00:00 9.7 14 Noroeste 32 Noroeste 0 -- -- 76
2020-10-03 11:00:00 8.6 17 Noroeste 27 Oeste 0 -- -- 87
2020-10-03 10:00:00 6.7 10 Oeste 24 Oeste 0.1 -- -- 90
2020-10-03 09:00:00 6.1 6 Noroeste 17 Noroeste 0.4 -- -- 90
2020-10-03 08:00:00 6.2 8 Oeste 13 Oeste 0 -- -- 90
2020-10-03 07:00:00 6.1 5 Oeste 14 Oeste 0 -- -- 90
2020-10-03 06:00:00 5.9 3 Oeste 17 Oeste 0 -- -- 90
2020-10-03 05:00:00 5.8 9 Oeste 22 Oeste 0.1 -- -- 90
2020-10-03 04:00:00 5.8 10 Oeste 22 Oeste 0 -- -- 90
2020-10-03 03:00:00 5.6 10 Oeste 24 Noroeste 0 -- -- 90
2020-10-03 02:00:00 6.1 13 Oeste 24 Oeste 0.1 -- -- 90
2020-10-03 01:00:00 6 9 Oeste 21 Oeste 0 -- -- 90
2020-10-03 00:00:00 6.2 11 Noroeste 30 Noroeste 1.2 -- -- 89
2020-10-02 23:00:00 6.6 15 Noroeste 37 Noroeste 0.5 -- -- 89
2020-10-02 22:00:00 6.7 17 Noroeste 30 Noroeste 1.6 -- -- 89
2020-10-02 21:00:00 7 13 Oeste 28 Oeste 0 -- -- 86
2020-10-02 20:00:00 7.3 9 Oeste 26 Noroeste 0 -- -- 84
2020-10-02 19:00:00 7.8 16 Noroeste 33 Oeste 0.2 -- -- 81
2020-10-02 18:00:00 8.6 13 Oeste 31 Noroeste 0.4 -- -- 84
2020-10-02 17:00:00 8.1 16 Noroeste 42 Oeste 1.7 -- -- 83
2020-10-02 16:00:00 9.7 23 Oeste 43 Oeste 0.1 -- -- 78
2020-10-02 15:00:00 8 24 Noroeste 51 Oeste 1 -- -- 84
2020-10-02 14:00:00 9.5 23 Noroeste 51 Noroeste 0.1 -- -- 71
2020-10-02 13:00:00 8.6 22 Noroeste 44 Oeste 0.2 -- -- 80
2020-10-02 12:00:00 7.9 24 Noroeste 40 Noroeste 0 -- -- 81
2020-10-02 11:00:00 5.6 21 Noroeste 49 Noroeste 1.5 -- -- 87
2020-10-02 10:00:00 7 27 Noroeste 51 Noroeste 0.1 -- -- 81
2020-10-02 09:00:00 7.8 24 Noroeste 49 Noroeste 2.2 -- -- 89
2020-10-02 08:00:00 8.7 18 Noroeste 50 Noroeste 0.7 -- -- 88
2020-10-02 07:00:00 10.3 28 Noroeste 49 Oeste 0.3 -- -- 88
2020-10-02 06:00:00 11.5 18 Oeste 50 Oeste 0 -- -- 87
2020-10-02 05:00:00 12.5 25 Noroeste 52 Oeste 1.8 -- -- 90
2020-10-02 04:00:00 13.2 20 Oeste 52 Oeste 2.3 -- -- 92
2020-10-02 03:00:00 13.1 8 Oeste 33 Oeste 1.2 -- -- 92
2020-10-02 02:00:00 13.3 14 Oeste 37 Oeste 1.9 -- -- 92
2020-10-02 01:00:00 12.5 14 Sudoeste 40 Sudoeste 0.3 -- -- 92
2020-10-02 00:00:00 11.7 15 Sudoeste 37 Sudoeste 0.4 -- -- 91
2020-10-01 23:00:00 11.1 15 Sudoeste 34 Sudoeste 0 -- -- 89
2020-10-01 22:00:00 10.8 10 Sudoeste 36 Sudoeste 0 -- -- 85
2020-10-01 21:00:00 11.3 8 Sudoeste 31 Oeste 0 -- -- 76
2020-10-01 20:00:00 12.1 12 Oeste 46 Oeste 0 -- -- 72
2020-10-01 19:00:00 13.2 11 Sudoeste 30 Sudoeste 0 -- -- 65
2020-10-01 18:00:00 14.3 12 Sudoeste 28 Oeste 0 -- -- 62
2020-10-01 17:00:00 14.1 5 Oeste 30 Oeste 0 -- -- 69
2020-10-01 16:00:00 15.2 12 Oeste 31 Oeste 0 -- -- 58
2020-10-01 15:00:00 14.6 9 Noroeste 25 Noroeste 0 -- -- 60
2020-10-01 14:00:00 14.2 15 Noroeste 26 Noroeste 0 -- -- 60
2020-10-01 13:00:00 13.6 11 Oeste 31 Oeste 0 -- -- 63
2020-10-01 12:00:00 12.4 16 Noroeste 28 Oeste 0.1 -- -- 74
2020-10-01 11:00:00 11.4 8 Oeste 14 Sudoeste 0 -- -- 87
2020-10-01 10:00:00 10.3 10 Oeste 18 Oeste 0 -- -- 91
2020-10-01 09:00:00 9.8 5 Oeste 22 Noroeste 0.1 -- -- 91
2020-10-01 08:00:00 9.8 11 Noroeste 17 Noroeste 0.2 -- -- 92
2020-10-01 07:00:00 10.8 4 Noroeste 11 Noroeste 0.5 -- -- 92
2020-10-01 06:00:00 11.1 0 Calma 12 Oeste 0.1 -- -- 92
2020-10-01 05:00:00 11.1 9 Oeste 21 Oeste 0.2 -- -- 91
2020-10-01 04:00:00 11.1 3 Sudoeste 16 Sudoeste 0 -- -- 89
2020-10-01 03:00:00 11 5 Oeste 22 Oeste 0 -- -- 88
2020-10-01 02:00:00 11.1 9 Sudoeste 22 Sudoeste 0 -- -- 85
2020-10-01 01:00:00 10.3 0 Calma 8 Sur 0 -- -- 85
2020-10-01 00:00:00 10.2 3 Sudeste 6 Norte 0 -- -- 84
2020-09-30 23:00:00 10.1 5 Norte 9 Oeste 0 -- -- 80
2020-09-30 22:00:00 12.1 0 Calma 22 Oeste 0 -- -- 76
2020-09-30 21:00:00 12.4 10 Oeste 22 Oeste 0 -- -- 74
2020-09-30 20:00:00 15.2 4 Oeste 14 Oeste 0 -- -- 65
2020-09-30 19:00:00 17.6 6 Norte -- -- -- -- -- 57
2020-09-30 18:00:00 20.3 9 Oeste 29 Oeste 0 -- -- 45
2020-09-30 17:00:00 20.9 10 Noroeste 27 Oeste 0 -- -- 45
2020-09-30 16:00:00 22.5 11 Oeste 27 Oeste 0 -- -- 30
2020-09-30 15:00:00 21.4 11 Oeste 31 Noroeste 0 -- -- 38
2020-09-30 14:00:00 21.4 10 Oeste 27 Oeste 0 -- -- 36
2020-09-30 13:00:00 18.9 3 Oeste 13 Noroeste 0.2 -- -- 52
2020-09-30 12:00:00 16.8 3 Sudeste 10 Sudeste 0 -- -- 77
2020-09-30 11:00:00 11.2 0 Calma 5 Este 0 -- -- 93
2020-09-30 10:00:00 6.3 3 Oeste 5 Oeste 0 -- -- 93
2020-09-30 09:00:00 3 0 Calma 3 Nordeste 0 -- -- 93
2020-09-30 08:00:00 2.3 0 Calma -- -- 0 -- -- 92
2020-09-30 07:00:00 3 0 Calma 3 Norte 0 -- -- 92
2020-09-30 06:00:00 3.8 0 Calma -- -- 0 -- -- 92
2020-09-30 05:00:00 4.1 0 Calma 0 Calma 0 -- -- 91
2020-09-30 04:00:00 5.1 0 Calma -- -- 0 -- -- 90
2020-09-30 03:00:00 5.7 0 Calma 3 Oeste 0 -- -- 88
2020-09-30 02:00:00 7.3 0 Calma 5 Sudoeste 0 -- -- 86
2020-09-30 01:00:00 8.9 3 Sudoeste 7 Sudoeste 0 -- -- 83
2020-09-30 00:00:00 10.4 2 Sur 6 Sudoeste 0 -- -- 79